This is the latest recevied weather packets stored in our database for station/object NL3D. If no packets are shown the sender has not sent any weather packets the latest 1 day(s).
| Time | Temp. | Humidity | Pressure | Rain* | Wind** | Luminosity | Snow |
|---|---|---|---|---|---|---|---|
| 1778014517 | 8.89° C | 73% | 1006.3 hPa | 0 mm | 0.89 m/s, 216° | 212 W/m² | - |
| 1778014215 | 8.89° C | 71% | 1006.2 hPa | 0 mm | 0.45 m/s, 170° | 206 W/m² | - |
| 1778013912 | 8.89° C | 72% | 1005.9 hPa | 0 mm | 0.89 m/s, 10° | 179 W/m² | - |
| 1778013609 | 8.33° C | 72% | 1006.2 hPa | 0 mm | 0.89 m/s, 150° | 198 W/m² | - |
| 1778013305 | 8.33° C | 76% | 1006.1 hPa | 0 mm | 1.34 m/s, 150° | 198 W/m² | - |
| 1778013001 | 8.33° C | 74% | 1005.9 hPa | 0 mm | 0.89 m/s, 44° | 198 W/m² | - |
| 1778012698 | 8.33° C | 74% | 1006.1 hPa | 0 mm | 0.89 m/s, 25° | 211 W/m² | - |
| 1778012394 | 8.33° C | 76% | 1006 hPa | 0 mm | 0 m/s | 216 W/m² | - |
| 1778012091 | 8.33° C | 76% | 1005.8 hPa | 0 mm | 0.89 m/s, 182° | 218 W/m² | - |
| 1778011789 | 8.33° C | 75% | 1005.8 hPa | 0 mm | 1.34 m/s, 6° | 226 W/m² | - |
| 1778011487 | 8.33° C | 76% | 1005.9 hPa | 0 mm | 0 m/s | 236 W/m² | - |
| 1778011182 | 8.33° C | 78% | 1005.7 hPa | 0 mm | 0.89 m/s, 154° | 227 W/m² | - |
| 1778010879 | 8.33° C | 79% | 1005.8 hPa | 0 mm | 0.89 m/s, 96° | 243 W/m² | - |
| 1778010577 | 8.33° C | 79% | 1005.9 hPa | 0 mm | 0.89 m/s, 344° | 282 W/m² | - |
| 1778010274 | 8.33° C | 81% | 1005.7 hPa | 0 mm | 0.89 m/s, 62° | 293 W/m² | - |
| 1778009974 | 8.33° C | 81% | 1005.7 hPa | 0 mm | 1.79 m/s, 358° | 368 W/m² | - |
| 1778009672 | 7.78° C | 81% | 1005.7 hPa | 0 mm | 0.45 m/s, 125° | 326 W/m² | - |
| 1778009370 | 7.78° C | 81% | 1005.5 hPa | 0 mm | 0.89 m/s, 27° | 302 W/m² | - |
| 1778009068 | 7.78° C | 82% | 1005.6 hPa | 0 mm | 0 m/s | 272 W/m² | - |
| 1778008765 | 7.78° C | 84% | 1005.5 hPa | 0 mm | 0.89 m/s, 5° | 239 W/m² | - |
| 1778008464 | 7.22° C | 85% | 1005.5 hPa | 0 mm | 0.89 m/s, 351° | 197 W/m² | - |
| 1778008160 | 7.22° C | 86% | 1005.4 hPa | 0 mm | 0.89 m/s, 22° | 197 W/m² | - |
| 1778007855 | 7.22° C | 85% | 1005.4 hPa | 0 mm | 0.45 m/s, 19° | 180 W/m² | - |
| 1778007550 | 7.22° C | 86% | 1005.9 hPa | 0 mm | 0.89 m/s, 82° | 182 W/m² | - |
| 1778007248 | 7.22° C | 85% | 1005.5 hPa | 0 mm | 0.45 m/s, 33° | 174 W/m² | - |
* Rain latest hour (hover to see other rain measurements)
** Current wind speed in m/s (hover to see current wind gust speed)